Wind_Speed
36 33 31 30 28 26 23 23 22 19 20 21 24 28 33 30 29 30 28 26 24 24 22 22 22 21 22 23 24 25 23 23 26 28 26 28 30 31 32 34 34 36 41 48 55 56 59 59 55 52 56 54 54 51
36 32 31 31 30 27 23 22 22 17 22 18 25 27 36 31 29 30 28 26 24 24 22 22 23 24 26 26 24 27 29 28 29 27 26 29 30 33 36 34 33 35 35 38 40 43 45 45 46 48 50 50 49 45
37 34 31 31 31 29 25 22 23 19 19 20 24 28 30 38 31 30 29 27 24 23 21 21 24 21 23 25 27 27 26 24 24 25 26 28 29 29 34 37 35 32 34 34 34 36 39 38 40 41 45 46 45 41
38 35 31 31 32 29 24 23 24 23 23 23 22 28 30 38 31 31 30 26 24 23 20 20 21 19 20 20 20 22 24 25 25 24 26 27 27 28 30 32 36 37 35 34 34 35 39 41 40 42 45 44 41 40
38 35 32 32 33 30 25 24 26 24 22 25 24 27 29 40 33 31 31 28 25 24 20 21 21 19 19 20 21 23 24 24 22 22 23 26 29 27 28 28 30 36 39 39 37 36 37 40 42 43 45 46 45 43
38 36 33 34 34 31 27 26 27 27 23 26 25 27 31 35 37 32 32 30 27 25 23 21 20 20 19 19 20 21 19 18 19 19 20 24 28 29 31 31 31 33 35 39 42 41 40 39 41 43 44 43 43 43
38 36 35 35 33 33 31 25 28 31 27 26 28 29 34 33 43 38 34 31 29 26 26 24 22 19 20 18 17 17 16 15 15 17 20 22 26 28 29 27 28 33 35 36 35 36 37 40 42 41 41 42 41 39
38 37 36 34 33 35 31 23 27 33 31 28 28 29 27 39 37 45 40 36 32 28 27 26 23 21 19 16 13 14 14 14 14 15 17 19 20 20 23 26 29 29 30 32 32 32 33 34 34 34 34 32 35 36
40 38 35 34 33 34 27 26 31 33 32 31 29 27 27 29 39 41 45 38 35 33 30 26 25 24 18 15 12 12 12 14 15 15 16 15 16 16 17 19 22 23 24 27 25 26 25 24 22 21 21 23 24 21
40 37 34 33 32 30 23 30 38 39 32 31 29 27 31 28 30 38 45 42 38 35 31 28 28 24 20 17 15 13 13 13 15 15 15 14 14 12 13 14 15 17 19 20 18 19 19 15 10 9 8 11 10 9
40 38 35 32 33 29 25 27 34 30 28 30 27 25 29 27 27 43 50 46 41 36 32 29 29 26 22 18 17 18 16 15 16 16 14 12 12 13 14 15 15 15 16 17 16 14 11 6 3 6 6 8 9 9
37 37 37 36 36 34 29 27 30 30 36 30 28 24 28 24 29 46 46 45 41 36 32 30 29 26 23 19 17 18 18 17 17 18 17 13 13 13 13 14 14 13 14 15 12 12 13 10 7 8 11 11 12 7
43 41 40 42 42 39 35 31 24 31 30 29 29 26 25 25 27 38 42 42 38 32 28 29 28 25 22 20 16 19 19 16 17 16 15 15 15 16 16 17 17 19 20 21 18 13 12 11 11 11 12 16 20 17
49 46 45 46 48 46 40 35 28 37 32 25 30 26 26 25 29 31 37 36 33 29 27 29 29 23 19 17 18 19 16 16 16 16 14 14 15 15 14 15 15 14 16 18 21 16 12 15 13 13 15 16 18 19
49 47 44 43 46 50 47 39 31 31 30 24 28 25 25 27 28 31 37 35 31 30 29 27 23 20 17 18 20 17 14 14 14 14 14 13 11 11 13 13 16 18 17 14 11 13 13 11 11 13 16 17 17 19
47 45 44 41 39 43 50 41 31 34 31 27 24 25 27 30 34 35 34 32 29 26 25 23 20 16 14 16 17 15 14 13 12 11 11 11 11 10 13 16 15 15 12 12 11 13 14 15 13 11 13 15 15 16
44 45 43 39 38 40 45 39 33 29 29 26 24 27 29 33 35 34 30 27 26 24 21 19 16 14 14 16 18 19 15 12 11 11 11 11 13 11 8 6 7 6 12 10 11 11 13 13 13 13 11 13 15 16
48 45 42 45 42 41 39 35 30 30 29 26 27 28 33 32 31 26 26 24 21 18 18 15 14 15 15 17 15 13 12 11 11 11 13 14 11 15 13 12 8 9 11 11 11 11 10 10 12 13 12 12 13 13
51 45 41 41 41 40 35 35 36 36 33 28 25 26 27 25 25 23 23 22 20 18 16 16 15 14 15 14 14 14 13 11 9 11 12 11 14 14 14 14 10 10 11 11 10 9 9 10 10 11 13 14 13 13
41 39 46 42 44 44 42 38 34 31 30 29 30 32 28 27 24 22 20 18 15 13 14 14 14 14 15 16 17 12 9 9 9 9 10 10 9 9 10 11 12 13 13 14 14 14 14 14 13 15 15 18 15 15
39 44 51 57 50 41 37 32 29 32 35 34 30 33 29 25 20 17 14 13 13 12 12 13 15 16 18 17 12 12 9 6 5 8 11 12 12 11 10 12 14 17 17 16 16 16 14 14 16 17 17 17 14 12
44 48 48 46 41 45 40 43 39 37 36 36 34 28 23 19 18 16 14 11 9 11 13 15 15 14 15 14 12 10 10 9 7 10 13 14 14 13 15 17 17 15 15 16 15 14 14 14 12 11 10 9 7 6
45 49 44 44 49 34 34 39 39 38 36 32 28 24 22 20 17 13 11 11 10 10 11 12 14 15 15 12 10 12 12 13 14 15 17 16 16 17 17 18 19 19 19 20 21 18 16 17 12 8 6 6 5 7
43 44 49 49 44 37 38 38 35 30 27 23 22 21 19 17 13 10 10 8 6 6 6 6 8 9 12 12 13 15 16 16 16 16 17 18 17 16 17 16 18 22 18 14 13 14 15 12 9 8 8 9 9 9
42 42 40 37 36 35 34 33 32 27 22 20 18 15 12 10 8 4 4 3 5 6 5 8 10 10 11 11 11 12 10 11 14 15 15 15 16 13 15 19 11 8 9 9 10 9 8 8 9 10 10 11 10 8
36 36 35 34 32 30 30 32 31 25 22 18 13 9 7 4 2 2 3 3 3 5 6 7 8 8 9 9 8 8 10 10 12 12 16 18 16 14 10 8 6 5 5 5 4 5 7 9 11 11 9 9 9 8
33 33 29 27 26 28 29 28 26 21 16 12 8 5 4 2 2 4 5 4 6 7 7 7 8 8 7 7 8 9 11 10 12 11 8 4 4 4 3 3 3 4 6 9 10 10 10 11 11 10 10 10 11 11
27 28 26 25 24 25 25 22 17 12 8 6 3 3 3 4 7 6 6 7 7 4 4 4 4 4 5 7 9 9 10 9 4 4 2 2 3 3 3 4 6 6 6 7 9 9 10 10 11 12 13 13 14 16
21 19 18 18 18 18 18 15 10 6 4 4 4 5 8 8 5 4 4 4 5 5 4 5 5 5 7 9 6 2 2 4 7 6 5 5 6 7 8 9 10 11 11 10 9 10 12 14 14 15 16 18 18 19
19 18 17 16 15 14 12 11 10 4 2 3 5 4 3 3 3 3 3 3 4 5 7 5 1 3 3 3 3 1 1 1 4 7 9 9 10 9 10 12 12 13 14 14 14 14 14 16 17 18 18 19 21 22
14 14 13 13 13 13 10 3 3 4 3 3 2 1 1 1 3 5 7 4 2 7 8 6 5 3 3 2 2 4 6 7 7 8 8 10 12 12 12 11 13 16 18 19 19 18 17 19 19 19 21 23 23 24
18 15 13 10 7 4 5 6 6 5 4 2 0 2 2 7 10 11 11 9 5 1 1 3 4 6 7 7 8 10 8 7 7 8 9 11 13 16 18 20 22 23 23 23 23 24 24 24 25 23 27 28 28 30
11 11 10 9 6 3 3 1 3 2 5 10 11 12 13 13 12 9 7 5 3 4 4 5 7 9 10 10 10 10 11 12 12 13 15 16 17 18 20 22 23 24 24 24 24 23 24 24 25 26 26 27 28 29
Wind_Direction
299 300 301 299 294 292 292 298 306 274 250 242 233 215 217 216 219 220 216 216 216 220 219 222 218 219 213 223 229 233 234 238 245 250 255 251 237 235 241 239 240 242 243 244 245 250 254 257 262 263 266 265 264 268
294 295 296 295 291 287 283 284 289 276 243 255 232 223 221 218 218 217 213 215 216 220 224 223 225 221 219 227 232 228 231 234 241 248 251 245 247 234 237 241 238 240 240 245 247 250 252 256 259 260 259 263 267 269
293 293 292 291 289 285 278 265 273 276 257 253 234 226 231 214 216 213 210 213 215 220 221 221 227 226 226 226 228 235 240 244 246 250 253 252 252 246 238 236 236 238 242 243 249 250 252 253 255 257 260 264 267 269
290 289 288 287 285 283 278 262 259 264 256 246 239 230 228 210 211 210 208 207 211 218 219 223 227 226 227 227 229 235 243 249 255 255 253 254 250 247 243 240 237 238 238 241 243 247 250 253 255 257 260 264 267 270
286 286 286 283 280 280 275 258 249 254 258 241 238 234 223 216 209 211 209 206 209 216 221 222 228 227 227 228 235 242 247 251 252 253 253 251 249 244 246 246 246 244 242 244 247 249 252 255 257 259 262 266 269 270
282 282 280 276 274 274 273 260 245 245 245 243 237 229 226 225 204 207 209 206 209 215 219 223 228 230 230 231 239 246 245 246 249 253 255 252 250 245 250 250 252 254 252 251 249 249 249 253 257 260 265 269 271 274
278 278 275 272 269 269 270 261 243 241 237 240 239 232 219 222 210 207 209 208 209 212 217 224 225 228 231 235 245 244 244 244 248 253 256 253 252 253 254 258 253 249 253 255 257 260 261 262 264 266 270 272 276 280
274 273 270 268 266 265 266 254 235 238 234 233 236 230 223 215 216 207 206 208 210 213 216 224 227 229 231 237 237 236 242 253 261 261 260 262 263 261 256 252 253 254 258 264 268 269 269 270 274 274 280 282 279 288
270 267 264 262 262 261 259 231 227 234 230 228 229 235 225 222 212 213 208 206 210 212 215 219 226 230 230 235 235 237 242 251 259 262 262 265 265 262 258 256 259 264 265 266 270 273 278 282 285 285 285 287 288 290
264 259 255 253 250 250 232 221 219 228 223 224 229 230 227 224 209 210 211 204 208 211 212 213 224 228 228 229 231 237 242 246 255 263 265 264 269 266 262 263 264 265 269 271 274 283 288 292 292 285 270 258 265 269
256 250 244 238 237 231 220 228 230 225 213 222 223 220 221 229 219 212 209 201 206 211 211 212 219 223 226 227 234 240 245 252 262 265 264 264 269 276 280 276 277 281 278 281 291 296 307 321 268 213 221 238 222 212
248 242 235 225 227 226 221 227 232 215 206 218 215 219 220 225 219 202 203 202 204 208 207 209 216 219 222 227 233 244 247 253 257 262 266 264 265 276 284 277 282 290 288 288 295 292 301 294 284 226 223 235 257 250
242 236 229 223 221 223 220 224 222 213 203 218 217 225 219 215 214 208 205 205 206 206 204 213 218 217 220 227 237 246 250 250 253 258 261 270 273 276 280 284 280 278 275 278 284 290 275 277 271 257 248 232 236 240
238 234 228 224 218 220 219 217 215 208 207 209 215 226 215 205 205 205 206 200 200 197 207 215 217 214 221 230 240 246 249 247 256 263 263 266 273 279 280 276 265 254 261 266 259 249 256 267 266 251 246 248 248 252
231 224 219 217 215 215 215 212 214 211 205 205 211 220 205 204 204 201 201 197 189 199 208 214 216 217 223 237 244 245 244 254 260 265 268 274 279 276 271 259 249 258 265 283 238 242 260 262 255 245 248 251 253 255
211 205 201 202 206 205 209 207 210 201 200 198 210 200 192 194 188 186 183 186 194 201 203 211 219 229 238 243 235 231 242 256 258 259 265 265 258 266 270 272 271 268 246 240 258 266 264 267 269 272 261 260 258 256
183 183 184 190 185 182 193 198 193 198 191 195 193 189 187 179 170 172 175 186 190 196 201 212 224 235 237 238 231 231 242 257 256 253 245 251 240 242 260 248 214 263 282 284 286 282 271 267 269 273 275 268 262 260
159 165 165 156 154 164 173 179 183 180 174 175 176 174 170 168 166 169 177 180 185 193 205 214 224 233 232 231 231 234 238 235 244 251 248 241 252 245 252 263 263 276 281 282 277 274 270 269 276 284 284 277 274 275
128 134 142 145 149 158 166 167 162 160 156 160 158 157 165 156 159 162 162 169 183 194 204 222 234 231 222 221 225 229 228 236 264 261 260 245 252 251 245 255 262 260 264 273 280 279 281 281 283 285 283 283 284 280
127 129 136 146 155 154 152 151 149 152 153 151 155 144 142 146 150 157 164 175 185 201 221 229 225 218 211 216 218 221 236 234 290 237 238 245 250 260 255 249 258 270 279 279 277 274 268 269 273 273 282 278 274 277
127 136 139 141 145 149 142 140 154 147 138 141 143 140 142 144 148 154 165 176 187 199 211 217 209 207 213 214 220 230 246 217 204 233 252 260 261 262 256 252 261 268 268 266 271 275 267 265 275 279 277 266 263 265
128 131 134 141 142 135 127 135 150 149 146 140 137 139 135 136 137 141 151 166 187 201 202 203 205 204 205 212 219 222 225 242 260 266 268 271 275 273 268 268 273 270 257 258 265 261 259 263 265 260 259 262 258 247
133 130 126 130 132 123 152 145 141 140 136 135 138 136 135 134 130 137 152 166 178 185 192 200 205 208 218 222 225 228 242 253 263 268 271 274 272 272 274 276 274 270 270 274 276 269 254 252 248 241 220 219 243 260
126 131 134 137 140 148 138 138 134 133 134 137 135 130 130 131 132 135 156 161 172 189 194 204 215 225 233 237 235 243 253 264 268 271 272 275 276 273 274 275 274 280 279 272 254 239 231 222 214 219 230 248 257 262
126 132 133 132 134 135 137 140 142 136 134 136 137 136 137 144 149 150 138 182 199 199 215 233 234 229 231 235 250 256 256 264 273 274 272 272 274 270 280 282 260 261 258 236 222 216 212 212 223 237 251 263 267 268
120 123 127 130 134 140 145 146 146 141 139 138 135 136 141 158 203 266 278 262 209 232 258 262 257 250 262 260 258 276 284 283 288 287 293 290 282 272 251 239 243 228 214 209 221 242 253 259 262 263 261 263 267 270
119 118 122 126 133 140 144 145 146 145 146 145 138 129 153 171 267 297 292 260 258 270 268 255 240 236 233 255 267 278 285 285 296 297 287 238 222 215 191 187 212 265 276 273 269 264 259 259 262 265 268 271 272 273
127 121 120 124 130 138 144 149 154 156 161 171 195 234 268 318 321 303 267 255 267 251 240 249 242 233 252 270 279 283 288 289 271 248 214 166 160 171 206 245 258 266 270 270 266 261 258 261 266 269 268 268 270 273
123 123 119 123 130 143 156 165 166 157 133 146 185 229 265 289 283 270 244 207 214 226 232 256 275 284 285 287 281 196 202 236 224 221 228 235 247 255 268 275 279 285 286 286 286 282 276 269 264 267 274 276 277 278
139 141 138 134 137 142 147 151 152 166 269 266 254 250 240 222 215 222 228 245 261 276 291 292 216 135 124 123 127 123 95 241 239 240 251 266 270 272 270 273 282 291 296 297 298 299 298 293 289 284 281 282 282 281
129 134 136 133 131 134 136 187 205 198 177 162 170 174 192 218 270 268 274 269 186 131 123 110 64 78 99 85 8 329 308 296 290 281 274 273 276 277 273 280 290 296 298 298 294 290 288 286 281 278 282 285 284 284
119 122 125 130 157 180 138 123 121 128 137 139 153 300 328 96 99 95 94 96 102 101 279 303 303 303 302 301 308 319 312 309 308 306 303 298 293 290 288 289 291 291 291 291 291 290 288 283 281 273 267 278 277 283
119 124 125 124 129 147 168 146 151 138 107 103 107 104 97 100 94 88 83 69 51 17 329 318 309 303 301 299 296 297 292 289 289 301 307 303 301 300 293 293 291 290 293 295 296 297 299 300 299 295 290 281 275 274
Height
5687 5686 5685 5684 5682 5680 5680 5679 5678 5676 5678 5679 5682 5685 5690 5695 5701 5705 5709 5712 5717 5720 5725 5729 5733 5736 5739 5742 5745 5749 5752 5754 5757 5758 5762 5764 5767 5769 5771 5773 5776 5779 5781 5783 5785 5788 5792 5795 5799 5804 5805 5805 5806 5810
5678 5676 5676 5676 5674 5673 5673 5674 5674 5673 5673 5675 5677 5680 5685 5690 5696 5700 5705 5708 5712 5717 5721 5724 5727 5731 5735 5738 5741 5744 5746 5748 5751 5753 5755 5756 5758 5761 5762 5765 5768 5771 5773 5775 5779 5779 5782 5785 5788 5791 5792 5793 5795 5799
5668 5667 5667 5667 5666 5665 5666 5668 5668 5668 5669 5670 5672 5675 5679 5684 5691 5696 5700 5703 5708 5713 5717 5720 5722 5728 5731 5733 5736 5738 5741 5743 5746 5748 5748 5749 5751 5752 5754 5755 5759 5762 5764 5767 5769 5770 5772 5775 5778 5780 5781 5782 5785 5788
5657 5657 5658 5658 5657 5657 5657 5659 5661 5662 5663 5665 5666 5670 5674 5678 5686 5691 5695 5700 5705 5709 5713 5716 5719 5723 5726 5729 5731 5733 5735 5738 5739 5741 5741 5742 5744 5745 5747 5748 5751 5753 5756 5757 5759 5761 5763 5765 5768 5770 5771 5773 5776 5778
5646 5647 5648 5648 5647 5648 5649 5651 5653 5655 5656 5658 5661 5665 5668 5673 5681 5687 5691 5695 5700 5706 5708 5711 5714 5719 5722 5725 5727 5729 5731 5732 5733 5734 5734 5735 5736 5739 5740 5742 5744 5745 5747 5749 5752 5754 5756 5757 5759 5760 5760 5762 5766 5768
5634 5635 5637 5637 5638 5639 5640 5643 5645 5648 5650 5652 5655 5659 5663 5668 5675 5681 5686 5691 5696 5700 5704 5708 5711 5714 5718 5721 5723 5725 5726 5727 5728 5728 5728 5728 5729 5732 5733 5736 5739 5739 5740 5742 5743 5745 5748 5749 5749 5751 5753 5754 5756 5757
5622 5623 5625 5626 5627 5629 5631 5633 5637 5640 5643 5646 5649 5653 5657 5662 5667 5675 5682 5688 5691 5696 5700 5703 5707 5711 5713 5716 5718 5719 5721 5722 5723 5723 5723 5724 5724 5725 5727 5730 5729 5729 5731 5732 5734 5738 5741 5741 5742 5744 5746 5746 5747 5747
5609 5611 5613 5615 5616 5618 5621 5624 5628 5631 5635 5639 5642 5646 5649 5656 5661 5667 5674 5680 5686 5691 5695 5697 5702 5706 5709 5712 5714 5715 5716 5717 5718 5718 5718 5719 5720 5721 5722 5721 5721 5723 5726 5727 5728 5730 5732 5732 5734 5735 5737 5736 5738 5738
5595 5598 5601 5603 5606 5608 5611 5615 5618 5622 5627 5632 5636 5638 5642 5647 5651 5658 5666 5673 5680 5687 5690 5695 5698 5702 5706 5709 5711 5711 5712 5713 5714 5714 5715 5716 5715 5715 5716 5716 5716 5718 5719 5720 5722 5723 5724 5725 5726 5728 5728 5727 5728 5729
5581 5584 5588 5592 5595 5598 5601 5606 5610 5613 5619 5624 5629 5632 5636 5640 5644 5652 5659 5666 5673 5679 5686 5691 5693 5699 5703 5705 5706 5708 5708 5708 5709 5711 5711 5712 5712 5712 5712 5712 5713 5714 5714 5715 5717 5717 5717 5718 5719 5719 5720 5721 5722 5722
5565 5570 5575 5580 5585 5589 5594 5597 5601 5607 5612 5618 5622 5626 5630 5633 5638 5645 5652 5660 5667 5676 5682 5687 5690 5695 5699 5701 5702 5704 5704 5704 5706 5707 5708 5708 5709 5709 5708 5708 5708 5708 5708 5709 5710 5711 5711 5712 5713 5714 5714 5714 5715 5715
5549 5555 5562 5568 5574 5580 5586 5591 5594 5599 5605 5611 5616 5621 5624 5628 5633 5640 5647 5655 5663 5672 5678 5683 5687 5691 5695 5697 5698 5700 5700 5701 5703 5703 5704 5705 5706 5705 5705 5705 5705 5705 5704 5705 5706 5706 5706 5707 5708 5709 5710 5710 5710 5711
5532 5540 5547 5555 5563 5569 5577 5583 5588 5593 5599 5605 5611 5615 5619 5624 5630 5637 5644 5653 5661 5670 5676 5680 5685 5690 5691 5694 5694 5696 5696 5698 5699 5700 5700 5702 5701 5700 5700 5700 5701 5700 5700 5699 5701 5702 5702 5702 5701 5702 5704 5705 5705 5706
5511 5521 5531 5541 5550 5558 5566 5576 5583 5588 5594 5600 5606 5610 5615 5621 5627 5635 5645 5651 5658 5666 5672 5675 5680 5684 5688 5689 5690 5691 5693 5694 5695 5696 5696 5696 5697 5696 5696 5695 5694 5694 5695 5694 5694 5695 5695 5696 5695 5696 5696 5698 5698 5699
5490 5503 5515 5525 5536 5547 5557 5569 5578 5584 5590 5596 5602 5607 5613 5619 5625 5632 5640 5648 5655 5662 5667 5672 5676 5681 5683 5684 5686 5688 5689 5690 5691 5691 5691 5691 5691 5691 5690 5689 5688 5688 5689 5689 5688 5689 5689 5689 5689 5690 5691 5692 5693 5693
5470 5486 5502 5515 5526 5539 5550 5565 5574 5581 5588 5594 5600 5605 5610 5617 5624 5632 5639 5647 5654 5661 5665 5670 5674 5677 5680 5681 5683 5684 5686 5687 5687 5686 5687 5687 5687 5686 5686 5685 5684 5682 5683 5685 5685 5685 5685 5684 5684 5684 5686 5687 5688 5689
5458 5479 5496 5510 5522 5535 5549 5563 5571 5577 5584 5592 5598 5603 5611 5619 5625 5632 5640 5647 5654 5659 5664 5667 5670 5674 5677 5677 5678 5680 5682 5684 5683 5683 5683 5683 5683 5683 5683 5683 5682 5681 5682 5681 5680 5680 5680 5679 5679 5680 5680 5682 5682 5683
5462 5480 5495 5511 5523 5538 5552 5562 5569 5577 5585 5591 5598 5606 5615 5621 5628 5635 5641 5648 5654 5658 5662 5665 5668 5671 5672 5673 5676 5678 5679 5680 5680 5679 5679 5679 5680 5680 5681 5680 5680 5679 5679 5678 5678 5677 5677 5675 5675 5675 5675 5675 5675 5676
5477 5490 5504 5517 5531 5545 5555 5563 5572 5579 5587 5596 5604 5612 5619 5625 5632 5637 5642 5647 5652 5656 5659 5662 5665 5667 5669 5672 5673 5674 5675 5676 5676 5676 5676 5676 5676 5677 5678 5679 5679 5679 5678 5677 5676 5675 5674 5674 5673 5672 5671 5670 5670 5671
5494 5504 5516 5526 5538 5547 5558 5567 5577 5585 5595 5603 5610 5617 5623 5629 5634 5639 5643 5648 5652 5655 5658 5659 5661 5665 5668 5669 5671 5672 5672 5673 5673 5672 5673 5674 5675 5675 5675 5676 5676 5676 5675 5674 5673 5673 5672 5672 5671 5670 5668 5669 5668 5669
5509 5517 5527 5539 5546 5558 5568 5578 5586 5594 5601 5608 5615 5620 5626 5631 5636 5640 5644 5648 5651 5653 5655 5658 5661 5663 5665 5668 5669 5669 5669 5669 5670 5671 5671 5672 5673 5673 5674 5674 5674 5673 5672 5671 5671 5670 5669 5669 5668 5666 5664 5664 5664 5665
5524 5531 5540 5549 5561 5572 5581 5589 5593 5600 5607 5612 5617 5624 5629 5633 5638 5642 5645 5647 5650 5653 5656 5658 5660 5662 5664 5665 5665 5665 5666 5666 5667 5668 5668 5669 5669 5669 5669 5668 5668 5668 5667 5667 5666 5666 5665 5664 5664 5663 5663 5662 5662 5662
5539 5547 5555 5563 5574 5581 5590 5595 5601 5607 5612 5617 5623 5629 5633 5637 5641 5644 5646 5650 5652 5653 5655 5656 5658 5659 5660 5661 5662 5663 5663 5663 5664 5664 5665 5665 5665 5664 5664 5664 5663 5662 5660 5659 5659 5661 5661 5661 5660 5660 5660 5660 5660 5660
5555 5562 5569 5576 5583 5590 5596 5603 5607 5613 5618 5624 5629 5633 5637 5641 5644 5646 5648 5649 5651 5653 5654 5655 5655 5656 5656 5658 5659 5659 5660 5660 5660 5660 5660 5660 5660 5660 5659 5658 5657 5656 5654 5653 5652 5654 5656 5658 5659 5659 5659 5659 5659 5658
5571 5577 5582 5587 5592 5599 5604 5609 5614 5619 5625 5629 5634 5638 5641 5643 5645 5646 5647 5649 5650 5651 5652 5652 5652 5653 5654 5655 5656 5656 5656 5656 5656 5655 5655 5654 5654 5653 5653 5652 5651 5651 5651 5651 5651 5652 5653 5654 5656 5656 5656 5655 5655 5655
5582 5586 5592 5596 5602 5606 5610 5615 5620 5625 5629 5634 5637 5640 5642 5643 5645 5646 5647 5648 5649 5650 5650 5650 5650 5651 5652 5652 5652 5653 5653 5652 5651 5650 5649 5648 5647 5648 5648 5649 5649 5650 5650 5650 5651 5652 5652 5652 5652 5652 5652 5651 5651 5651
5593 5596 5602 5606 5610 5614 5618 5623 5627 5631 5634 5637 5640 5641 5642 5643 5644 5646 5647 5648 5648 5649 5649 5649 5649 5649 5650 5650 5650 5650 5649 5648 5648 5647 5645 5645 5646 5646 5647 5648 5649 5649 5649 5649 5649 5649 5649 5649 5649 5649 5649 5648 5648 5647
5603 5606 5610 5614 5618 5622 5627 5630 5633 5636 5638 5640 5642 5642 5644 5645 5646 5646 5646 5646 5647 5647 5647 5647 5647 5648 5648 5647 5647 5647 5647 5646 5646 5646 5646 5646 5646 5647 5647 5648 5648 5648 5647 5647 5647 5647 5646 5646 5646 5646 5646 5645 5644 5643
5613 5616 5619 5622 5625 5629 5632 5635 5637 5639 5640 5642 5643 5644 5645 5645 5645 5645 5645 5646 5646 5646 5646 5646 5646 5646 5645 5645 5645 5644 5645 5645 5645 5646 5646 5647 5647 5647 5647 5646 5646 5645 5645 5644 5642 5642 5642 5641 5640 5639 5639 5638 5637 5636
5620 5623 5625 5627 5630 5633 5636 5639 5640 5642 5642 5643 5643 5643 5643 5644 5644 5645 5645 5645 5645 5645 5645 5645 5644 5644 5644 5645 5645 5645 5645 5645 5645 5645 5645 5644 5644 5644 5643 5642 5641 5640 5640 5638 5637 5637 5636 5635 5634 5632 5631 5630 5629 5627
5626 5629 5631 5634 5636 5638 5640 5642 5642 5642 5642 5643 5643 5644 5644 5644 5644 5644 5644 5644 5643 5645 5646 5646 5645 5645 5645 5645 5645 5645 5645 5644 5644 5643 5643 5643 5642 5641 5640 5638 5637 5636 5635 5634 5633 5631 5630 5629 5627 5626 5625 5623 5622 5620
5633 5635 5638 5639 5641 5642 5642 5643 5643 5643 5643 5644 5644 5644 5644 5644 5645 5645 5646 5647 5647 5647 5647 5647 5646 5646 5646 5645 5644 5643 5643 5642 5642 5641 5640 5639 5638 5636 5635 5634 5632 5630 5629 5627 5626 5624 5622 5621 5620 5619 5617 5615 5614 5612
5638 5640 5641 5642 5642 5643 5643 5644 5644 5645 5645 5646 5646 5647 5648 5648 5649 5649 5649 5649 5649 5648 5647 5647 5646 5645 5644 5643 5643 5642 5641 5640 5639 5638 5637 5635 5633 5631 5629 5627 5625 5623 5621 5620 5618 5616 5615 5613 5611 5610 5608 5606 5605 5603